Weather History for KBKL - August, 2013

Change the Weather History Date:

Thursday, August 29, 2013

  Actual Average Record
Temperature  
Mean Temperature 75 °F -  
Max Temperature 79 °F 76 °F 89 °F (2007)
Min Temperature 71 °F 62 °F 55 °F (2014)
Cooling Degree Days 10    
Growing Degree Days 25 (Base 50)    
Moisture  
Dew Point 71 °F    
Average Humidity 89    
Maximum Humidity 96    
Minimum Humidity 79    
Precipitation  
Precipitation 0.00 in - - ()
Sea Level Pressure  
Sea Level Pressure 30.01 in    
Wind  
Wind Speed 6 mph (NNE)    
Max Wind Speed 10 mph    
Max Gust Speed -    
Visibility 6 miles    
Events      
Averages and records for this station are not official NWS values.
T = Trace of Precipitation, MM = Missing Value Source: NWS Daily Summary

Daily Weather History Graph

Daily Weather History Graph

Search for Another Location

Airport or City:

Trip Planner

Search our weather history database for the weather conditions in past years. The results will help you decide how hot, cold, wet, or windy it might be!

Date:

Astronomy

Aug. 29, 2013 Rise Set
Actual Time 6:50 AM EDT 8:04 PM EDT
Civil Twilight 6:21 AM EDT 8:32 PM EDT
Nautical Twilight 5:47 AM EDT 9:07 PM EDT
Astronomical Twilight 5:10 AM EDT 9:43 PM EDT
Moon 12:38 AM EDT (8/29) 3:34 PM EDT (8/29)
Length of Visible Light 14h 11m
Length of Day
13h 14m
Last Quarter, 38% of the Moon is Illuminated
Aug 29
Last Quarter
Sep 5
New
Sep 12
First Quarter
Sep 19
Full
Sep 26
Last Quarter

Hourly Weather History & Observations

Time (EDT) Temp. Dew Point Humidity Pressure Visibility Wind Dir Wind Speed Gust Speed Precip Events Conditions
12:03 AM 73.4 °F 71.6 °F 94% 29.98 in 4.0 mi North 4.6 mph - N/A   Mostly Cloudy
12:17 AM 73.4 °F 71.6 °F 94% 29.97 in 5.0 mi NNE 4.6 mph - N/A   Overcast
12:28 AM 73.4 °F 71.6 °F 94% 29.98 in 6.0 mi NNE 5.8 mph - N/A   Overcast
12:53 AM 73.0 °F 72.0 °F 96% 29.97 in 7.0 mi NNE 3.5 mph - N/A   Overcast
1:53 AM 73.0 °F 72.0 °F 96% 29.96 in 7.0 mi NNE 4.6 mph - N/A   Overcast
2:14 AM 73.4 °F 71.6 °F 94% 29.98 in 6.0 mi NNE 3.5 mph - N/A   Overcast
2:53 AM 73.0 °F 72.0 °F 96% 29.96 in 6.0 mi NNE 5.8 mph - N/A   Mostly Cloudy
3:53 AM 73.0 °F 72.0 °F 96% 29.97 in 6.0 mi NNE 6.9 mph - N/A   Mostly Cloudy
4:03 AM 73.4 °F 71.6 °F 94% 29.98 in 5.0 mi NNE 6.9 mph - N/A   Mostly Cloudy
4:49 AM 73.4 °F 71.6 °F 94% 29.98 in 4.0 mi NNE 6.9 mph - N/A   Mostly Cloudy
4:53 AM 73.0 °F 72.0 °F 96% 29.97 in 4.0 mi North 6.9 mph - N/A   Mostly Cloudy
5:53 AM 72.0 °F 70.0 °F 93% 29.98 in 5.0 mi ENE 4.6 mph - N/A   Mostly Cloudy
6:04 AM 71.6 °F 69.8 °F 94% 29.99 in 5.0 mi ENE 5.8 mph - N/A   Mostly Cloudy
6:53 AM 72.0 °F 70.0 °F 93% 30.00 in 5.0 mi ENE 6.9 mph - N/A   Overcast
7:03 AM 71.6 °F 69.8 °F 94% 30.02 in 4.0 mi ENE 6.9 mph - N/A   Overcast
7:53 AM 72.0 °F 69.1 °F 91% 30.03 in 3.0 mi NE 6.9 mph - N/A   Overcast
8:42 AM 73.4 °F 69.8 °F 88% 30.05 in 5.0 mi East 4.6 mph - N/A   Overcast
8:53 AM 73.0 °F 69.1 °F 87% 30.04 in 5.0 mi ENE 3.5 mph - N/A   Overcast
9:53 AM 75.0 °F 70.0 °F 84% 30.04 in 6.0 mi North 5.8 mph - N/A   Haze
10:53 AM 75.9 °F 70.0 °F 82% 30.05 in 5.0 mi North 6.9 mph - N/A   Haze
11:53 AM 77.0 °F 70.0 °F 79% 30.06 in 5.0 mi North 6.9 mph - N/A   Haze
12:53 PM 78.1 °F 71.1 °F 79% 30.05 in 6.0 mi NNE 6.9 mph - N/A   Haze
1:53 PM 79.0 °F 72.0 °F 79% 30.04 in 6.0 mi NNE 9.2 mph - N/A   Haze
2:53 PM 78.1 °F 72.0 °F 81% 30.03 in 6.0 mi NNE 10.4 mph - N/A   Haze
3:53 PM 79.0 °F 72.0 °F 79% 30.03 in 8.0 mi NNE 10.4 mph - N/A   Clear
4:53 PM 78.1 °F 72.0 °F 81% 30.03 in 8.0 mi NNE 8.1 mph - N/A   Clear
5:53 PM 78.1 °F 71.1 °F 79% 30.03 in 9.0 mi NNE 8.1 mph - N/A   Clear
6:53 PM 77.0 °F 71.1 °F 82% 30.02 in 9.0 mi NNE 6.9 mph - N/A   Clear
7:53 PM 75.0 °F 71.1 °F 87% 30.01 in 9.0 mi NE 5.8 mph - N/A   Clear
8:53 PM 73.9 °F 72.0 °F 93% 30.02 in 8.0 mi NE 5.8 mph - N/A   Clear
9:53 PM 73.9 °F 71.1 °F 91% 30.02 in 9.0 mi NE 4.6 mph - N/A   Clear
10:53 PM 73.0 °F 68.0 °F 84% 30.02 in 10.0 mi Calm Calm - N/A   Clear
11:53 PM 71.1 °F 68.0 °F 90% 30.01 in 10.0 mi NE 3.5 mph - N/A   Clear